User: anonymous   Login
Location: Dompnac
(44.5644°N, 4.1026°E)
Time: 12:02:51
(UTC+00:00)
Language:

SJ 16-02 - Orbit

View from above orbital plane
View from above orbital plane
View from above satellite
View from above satellite

Ground track
Ground track

The orbit data is extracted from the following two-line orbital elements,

1 41634U 16043A   20330.08114350  .00000075  00000-0  11800-4 0  9998
2 41634  75.0015 132.3578 0008221 268.4272  91.5972 14.85732360239096
Epoch (UTC): 25 November 2020 01:56:50
Eccentricity: 0.0008221
inclination: 75.0015°
perigee height: 605 km
apogee height: 617 km
right ascension of ascending node: 132.3578°
argument of perigee: 268.4272°
revolutions per day: 14.85732360
mean anomaly at epoch: 91.5972°
orbit number at epoch: 23909

The dashed part of the orbit path shows where the satellite is in the earth's shadow,  

DLR